FW6665 Weather Reports


Display with metric or nautical units.
time (UTC)temp
F
wind
direction
speed
MPH
gust
MPH
rain 1hr
in
rain 24hr
in
rain mn
in
humidity
%
barometer
mb
20260503213704 60 193 0.0 2.0 0.00 0.00 0.00 77 1008.3
20260503213204 60 193 0.0 3.0 0.00 0.00 0.00 76 1008.3
20260503212705 60 193 1.0 3.0 0.00 0.00 0.00 76 1008.3
20260503212205 60 193 1.0 4.0 0.00 0.00 0.00 75 1008.4
20260503211714 60 193 0.0 4.0 0.00 0.00 0.00 75 1008.3
20260503211204 60 193 0.0 1.0 0.00 0.00 0.00 74 1008.1
20260503210704 60 195 0.0 2.0 0.00 0.00 0.00 74 1008.0
20260503205205 60 195 0.0 3.0 0.00 0.00 0.00 73 1007.9
20260503204205 60 195 0.0 1.0 0.00 0.00 0.00 72 1007.8
20260503203705 60 195 0.0 1.0 0.00 0.00 0.00 71 1007.8
20260503202206 61 195 0.0 1.0 0.00 0.00 0.00 70 1007.7
20260503201705 61 195 0.0 1.0 0.00 0.00 0.00 69 1007.5
20260503201205 61 195 0.0 2.0 0.00 0.00 0.00 69 1007.5
20260503200705 62 195 0.0 2.0 0.00 0.00 0.00 68 1007.4
20260503200204 62 195 0.0 2.0 0.00 0.00 0.00 68 1007.3
20260503195704 62 195 0.0 2.0 0.00 0.00 0.00 68 1007.3
20260503194704 62 195 0.0 2.0 0.00 0.00 0.00 67 1007.2
20260503194208 62 195 0.0 2.0 0.00 0.00 0.00 67 1007.1
20260503193704 62 195 0.0 2.0 0.00 0.00 0.00 66 1007.2
20260503193203 62 195 0.0 3.0 0.00 0.00 0.00 66 1007.2
20260503192704 63 195 0.0 3.0 0.00 0.00 0.00 66 1007.1
20260503192204 63 195 0.0 3.0 0.00 0.00 0.00 65 1007.0
20260503191704 63 195 0.0 2.0 0.00 0.00 0.00 64 1007.0
20260503191204 63 195 0.0 2.0 0.00 0.00 0.00 64 1007.0
20260503185704 64 195 0.0 1.0 0.00 0.00 0.00 64 1006.8
20260503185204 64 195 0.0 2.0 0.00 0.00 0.00 64 1006.7
20260503184706 64 195 0.0 2.0 0.00 0.00 0.00 64 1006.7
20260503184204 64 195 0.0 2.0 0.00 0.00 0.00 64 1006.6
20260503183704 64 195 0.0 2.0 0.00 0.00 0.00 64 1006.6
20260503183205 64 195 0.0 3.0 0.00 0.00 0.00 64 1006.4
20260503182704 64 195 0.0 3.0 0.00 0.00 0.00 63 1006.5
20260503182205 65 195 0.0 3.0 0.00 0.00 0.00 63 1006.3
20260503181204 65 195 1.0 3.0 0.00 0.00 0.00 63 1006.4
20260503180705 65 195 1.0 3.0 0.00 0.00 0.00 63 1006.3
20260503180205 65 195 1.0 3.0 0.00 0.00 0.00 64 1006.2
20260503175705 65 196 1.0 4.0 0.00 0.00 0.00 64 1006.2
20260503175204 65 196 1.0 4.0 0.00 0.00 0.00 64 1006.3
20260503174705 65 197 2.0 4.0 0.00 0.00 0.00 64 1006.2
20260503174204 66 173 1.0 5.0 0.00 0.00 0.00 64 1006.3
20260503173704 66 202 1.0 5.0 0.00 0.00 0.00 63 1006.2
20260503173204 66 179 2.0 4.0 0.00 0.00 0.00 63 1006.3
20260503172705 66 137 2.0 4.0 0.00 0.01 0.00 62 1006.2
20260503172205 66 175 1.0 4.0 0.00 0.01 0.00 62 1006.2
20260503171704 66 171 1.0 4.0 0.00 0.01 0.00 62 1006.2
20260503171204 66 245 1.0 6.0 0.00 0.01 0.00 62 1006.2
20260503170704 66 241 1.0 6.0 0.00 0.01 0.00 62 1006.2
20260503170204 66 247 2.0 7.0 0.00 0.01 0.00 61 1006.2
20260503160205 66 243 1.0 6.0 0.00 0.01 0.00 61 1006.2
20260503150704 68 165 2.0 10.0 0.00 0.01 0.00 59 1006.3
20260503150204 68 238 3.0 7.0 0.00 0.01 0.00 57 1006.3
20260503130704 67 261 4.0 11.0 0.00 0.01 0.00 62 1006.7
20260503120204 65 258 3.0 9.0 0.00 0.01 0.00 66 1006.8
20260503110704 65 247 2.0 6.0 0.00 0.01 0.00 65 1007.0
20260503110204 65 224 2.0 5.0 0.00 0.01 0.00 66 1007.0
20260503100204 65 217 2.0 6.0 0.00 0.01 0.00 67 1007.0
20260503090205 60 206 4.0 9.0 0.00 0.01 0.00 76 1007.3
20260503081204 59 245 1.0 9.0 0.00 0.01 0.00 80 1007.2
20260503080704 59 244 2.0 9.0 0.00 0.01 0.00 80 1007.2
20260503080204 59 245 2.0 9.0 0.00 0.01 0.00 80 1007.2
20260503072704 57 216 1.0 5.0 0.00 0.01 0.00 83 1007.2
20260503072204 57 237 1.0 5.0 0.00 0.01 0.00 83 1007.1
20260503071705 57 235 3.0 5.0 0.00 0.01 0.00 83 1007.0
20260503071204 57 233 2.0 5.0 0.00 0.01 0.00 83 1007.0
20260503070705 57 251 2.0 5.0 0.00 0.01 0.00 83 1007.1
20260503070204 57 240 3.0 4.0 0.00 0.01 0.00 83 1007.1
20260503060203 57 183 1.0 3.0 0.00 0.01 0.00 83 1006.9
20260503054705 57 179 1.0 3.0 0.00 0.01 0.00 83 1006.9
20260503054204 57 179 0.0 3.0 0.00 0.01 0.00 83 1006.9
20260503053705 57 179 1.0 3.0 0.00 0.01 0.00 83 1006.9
20260503053204 57 178 0.0 2.0 0.00 0.01 0.00 83 1006.9
20260503052704 57 178 1.0 1.0 0.00 0.01 0.00 83 1006.9
20260503052205 57 178 0.0 1.0 0.00 0.01 0.00 83 1006.7
20260503051204 57 178 0.0 1.0 0.00 0.01 0.00 83 1006.7
20260503050705 57 178 0.0 2.0 0.00 0.01 0.00 83 1006.7
20260503050205 57 178 0.0 2.0 0.00 0.01 0.00 83 1006.7
20260503045705 57 178 0.0 2.0 0.00 0.01 0.00 83 1006.7
20260503045206 57 178 0.0 2.0 0.00 0.01 0.00 83 1006.7
20260503044204 57 178 1.0 2.0 0.00 0.01 0.00 83 1006.8
20260503043704 57 178 0.0 2.0 0.00 0.01 0.00 83 1006.8
20260503043205 57 175 0.0 1.0 0.00 0.01 0.00 83 1006.8
20260503042704 57 175 0.0 2.0 0.00 0.01 0.00 83 1006.9
20260503042205 57 175 0.0 2.0 0.00 0.01 0.00 83 1006.9
20260503041705 57 175 0.0 2.0 0.00 0.01 0.00 83 1006.9
20260503041205 57 175 0.0 2.0 0.00 0.01 0.00 83 1007.0
20260503040705 57 175 0.0 2.0 0.00 0.01 0.00 83 1006.9
20260503040204 57 175 0.0 1.0 0.00 0.01 0.00 83 1006.9
20260503035704 57 175 0.0 1.0 0.00 0.01 0.00 83 1006.8
20260503035205 57 175 0.0 1.0 0.00 0.01 0.00 83 1006.9
20260503034703 57 175 0.0 3.0 0.00 0.01 0.00 83 1006.9
20260503034204 57 175 0.0 3.0 0.00 0.01 0.00 83 1007.0
20260503033704 57 175 0.0 3.0 0.00 0.01 0.00 83 1006.9
20260503033204 57 175 0.0 1.0 0.00 0.01 0.00 83 1006.8
20260503032704 57 175 0.0 1.0 0.00 0.01 0.00 83 1006.8
20260503032205 57 175 0.0 2.0 0.00 0.01 0.00 83 1006.8
20260503031747 57 175 0.0 2.0 0.00 0.01 0.00 83 1006.9
20260503031204 57 175 0.0 2.0 0.00 0.01 0.00 83 1006.9
20260503030704 57 175 0.0 2.0 0.00 0.01 0.00 83 1006.9
20260503030204 57 175 0.0 2.0 0.00 0.01 0.00 83 1006.9
20260503025704 57 175 0.0 2.0 0.00 0.01 0.00 83 1007.0
20260503024205 57 175 0.0 2.0 0.00 0.01 0.00 83 1007.0
20260503022705 57 175 0.0 2.0 0.00 0.01 0.00 83 1007.0
20260503021704 57 175 0.0 2.0 0.00 0.01 0.00 83 1007.1
20260503021204 57 175 1.0 2.0 0.00 0.01 0.00 83 1007.1
20260503020704 57 175 0.0 2.0 0.00 0.01 0.00 83 1007.2
20260503015704 57 175 1.0 4.0 0.00 0.01 0.00 83 1007.4
20260503015204 57 175 1.0 4.0 0.00 0.01 0.00 83 1007.4
20260503014704 57 172 1.0 3.0 0.00 0.01 0.00 83 1007.3
20260503014205 58 197 1.0 3.0 0.00 0.01 0.00 83 1007.5
20260503013204 58 197 0.0 4.0 0.00 0.01 0.00 82 1007.5
20260503012708 58 196 1.0 4.0 0.00 0.01 0.00 82 1007.5
20260503012205 58 196 1.0 4.0 0.00 0.01 0.00 82 1007.5
20260503011704 58 173 1.0 3.0 0.00 0.01 0.00 82 1007.6
20260503010704 58 148 1.0 3.0 0.00 0.01 0.00 82 1007.8
20260503005704 58 172 1.0 3.0 0.00 0.01 0.00 82 1007.8
20260503005204 58 172 0.0 3.0 0.00 0.01 0.00 82 1007.8
20260503004704 58 172 1.0 3.0 0.00 0.01 0.00 82 1007.8
20260503004204 58 175 1.0 2.0 0.00 0.01 0.00 82 1007.9
20260503002705 58 171 0.0 4.0 0.00 0.01 0.00 82 1007.9
20260503002205 58 171 0.0 4.0 0.00 0.01 0.00 82 1008.0
20260503001704 58 176 1.0 2.0 0.00 0.01 0.00 82 1008.1
20260503001207 58 102 0.0 2.0 0.00 0.01 0.00 82 1008.1
20260503000705 58 102 0.0 2.0 0.00 0.01 0.00 82 1008.1
20260503000204 58 102 0.0 2.0 0.00 0.01 0.00 82 1008.1
20260502235204 58 102 1.0 2.0 0.00 0.01 0.00 82 1008.2
20260502234703 58 99 0.0 1.0 0.00 0.01 0.00 82 1008.1
20260502234219 58 99 0.0 2.0 0.00 0.01 0.00 82 1008.2
20260502233704 58 99 0.0 2.0 0.00 0.01 0.00 82 1008.2
20260502233205 58 99 0.0 1.0 0.00 0.01 0.00 82 1008.3
20260502232205 58 97 0.0 1.0 0.00 0.01 0.00 82 1008.3
20260502231705 58 97 0.0 1.0 0.00 0.01 0.00 82 1008.2
20260502231203 58 97 0.0 2.0 0.00 0.01 0.00 82 1008.2
20260502230730 58 97 0.0 2.0 0.00 0.01 0.00 82 1008.3
20260502230204 58 97 0.0 2.0 0.00 0.01 0.01 82 1008.2
20260502225705 58 97 0.0 0.0 0.00 0.01 0.01 82 1008.3
20260502225203 58 97 0.0 1.0 0.00 0.01 0.01 82 1008.2
20260502224704 58 97 0.0 3.0 0.00 0.01 0.01 82 1008.3
20260502224205 59 97 0.0 3.0 0.00 0.01 0.01 82 1008.3
20260502223704 59 97 0.0 3.0 0.00 0.01 0.01 82 1008.3
20260502223205 59 97 1.0 3.0 0.00 0.01 0.01 82 1008.4
20260502222704 59 97 0.0 3.0 0.00 0.01 0.01 82 1008.5
20260502222209 59 97 0.0 3.0 0.00 0.01 0.01 82 1008.4
20260502221705 59 97 1.0 3.0 0.00 0.01 0.01 82 1008.4
20260502220705 59 97 1.0 2.0 0.00 0.01 0.01 82 1008.5
20260502215707 59 97 0.0 2.0 0.00 0.01 0.01 82 1008.5
20260502215205 59 97 0.0 3.0 0.00 0.01 0.01 82 1008.3
20260502214704 59 97 0.0 3.0 0.00 0.01 0.01 82 1008.2
20260502214204 59 97 0.0 3.0 0.00 0.01 0.01 82 1008.3